Cherry Point, NC

10:53 PM EDT on May 22, 2017 (GMT -0400)
Cherry Point Marine Corps Air Station

Weather History for KNKT - February, 2014

Change the Weather History Date:

Friday, February 7, 2014

  Actual Average Record
Temperature  
Mean Temperature 39 °F -  
Max Temperature 46 °F 54 °F 73 °F (2017)
Min Temperature 32 °F 34 °F 25 °F (2015)
Degree Days  
Heating Degree Days 26    
Moisture  
Dew Point 30 °F    
Average Humidity 78    
Maximum Humidity 92    
Minimum Humidity 48    
Precipitation  
Precipitation 0.12 in - - ()
Sea Level Pressure  
Sea Level Pressure 30.30 in    
Wind  
Wind Speed 7 mph (NNE)    
Max Wind Speed 10 mph    
Max Gust Speed -    
Visibility 9 miles    
Events Rain , Snow    
Averages and records for this station are not official NWS values.
T = Trace of Precipitation, MM = Missing Value Source: NWS Daily Summary

Daily Weather History Graph

Daily Weather History Graph

Search for Another Location

Airport or City:

Trip Planner

Search our weather history database for the weather conditions in past years. The results will help you decide how hot, cold, wet, or windy it might be!

Date:

Astronomy

Feb. 07, 2014 Rise Set
Actual Time 7:01 AM EST 5:42 PM EST
Civil Twilight 6:34 AM EST 6:08 PM EST
Nautical Twilight 6:05 AM EST 6:38 PM EST
Astronomical Twilight 5:35 AM EST 7:08 PM EST
Moon 11:54 AM EST (2/7) 1:13 AM EST (2/7)
Length of Visible Light 11h 33m
Length of Day
10h 41m
First Quarter, 59% of the Moon is Illuminated
Feb 7
First Quarter
Feb 14
Full
Feb 22
Last Quarter
Mar 1
New
Mar 8
First Quarter

Hourly Weather History & Observations

Time (EST) Temp. Windchill Dew Point Humidity Pressure Visibility Wind Dir Wind Speed Gust Speed Precip Events Conditions
12:00 AM 32.0 °F 24.2 °F 30.0 °F 92% 30.34 in 1.0 mi North 9.2 mph - 0.05 in Rain , Snow Light Rain
12:11 AM 32.0 °F 25.6 °F 30.0 °F 92% 30.34 in 2.0 mi North 6.9 mph - 0.08 in Rain , Snow Light Rain
12:18 AM 33.1 °F 28.7 °F 30.9 °F 92% 30.33 in 4.0 mi NE 4.6 mph - 0.09 in Rain , Snow Light Rain
12:54 AM 33.1 °F 27.7 °F 30.0 °F 89% 30.30 in 9.0 mi NE 5.8 mph - 0.10 in Rain Light Rain
1:54 AM 33.1 °F 25.5 °F 30.0 °F 89% 30.30 in 8.0 mi NNE 9.2 mph - 0.02 in Rain Light Rain
2:15 AM 33.1 °F 25.5 °F 30.0 °F 89% 30.29 in 5.0 mi NNE 9.2 mph - 0.00 in Snow Light Snow
2:25 AM 33.1 °F 26.9 °F 30.0 °F 89% 30.29 in 9.0 mi NNE 6.9 mph - 0.00 in   Overcast
2:54 AM 33.1 °F 25.5 °F 30.0 °F 89% 30.27 in 10.0 mi NE 9.2 mph - 0.00 in   Overcast
3:05 AM 33.1 °F 25.5 °F 30.0 °F 89% 30.28 in 10.0 mi NE 9.2 mph - N/A   Overcast
3:25 AM 33.1 °F 25.5 °F 30.0 °F 89% 30.27 in 10.0 mi NE 9.2 mph - N/A   Overcast
3:54 AM 33.1 °F 26.1 °F 28.9 °F 85% 30.27 in 10.0 mi ENE 8.1 mph - N/A   Overcast
4:54 AM 32.0 °F 23.6 °F 28.9 °F 88% 30.27 in 10.0 mi North 10.4 mph - N/A   Clear
5:54 AM 32.0 °F 23.6 °F 28.9 °F 88% 30.30 in 10.0 mi North 10.4 mph - N/A   Clear
6:54 AM 32.0 °F 24.8 °F 28.0 °F 85% 30.31 in 10.0 mi North 8.1 mph - N/A   Clear
7:54 AM 33.1 °F 26.1 °F 28.9 °F 85% 30.33 in 10.0 mi North 8.1 mph - N/A   Clear
8:54 AM 35.1 °F 27.9 °F 28.0 °F 76% 30.33 in 10.0 mi NNE 9.2 mph - N/A   Clear
9:54 AM 37.0 °F 29.8 °F 28.9 °F 73% 30.34 in 10.0 mi NNE 10.4 mph - N/A   Clear
10:54 AM 39.9 °F 35.1 °F 30.0 °F 68% 30.34 in 10.0 mi NNE 6.9 mph - N/A   Scattered Clouds
11:54 AM 43.0 °F 38.2 °F 30.9 °F 62% 30.34 in 10.0 mi NNE 8.1 mph - N/A   Scattered Clouds
12:54 PM 45.0 °F 41.2 °F 32.0 °F 60% 30.30 in 10.0 mi North 6.9 mph - N/A   Mostly Cloudy
1:54 PM 46.0 °F 43.1 °F 30.0 °F 54% 30.27 in 10.0 mi NE 5.8 mph - N/A   Mostly Cloudy
2:54 PM 46.9 °F - 28.9 °F 50% 30.28 in 10.0 mi Variable 6.9 mph - N/A   Clear
3:54 PM 46.9 °F - 28.0 °F 48% 30.28 in 10.0 mi NE 4.6 mph - N/A   Mostly Cloudy
4:54 PM 46.0 °F 43.9 °F 28.0 °F 50% 30.30 in 10.0 mi ENE 4.6 mph - N/A   Clear
5:54 PM 43.0 °F 40.3 °F 30.0 °F 60% 30.29 in 10.0 mi ENE 4.6 mph - N/A   Scattered Clouds
6:54 PM 41.0 °F - 32.0 °F 70% 30.30 in 10.0 mi Calm Calm - N/A   Clear
7:54 PM 39.0 °F - 32.0 °F 76% 30.30 in 10.0 mi Calm Calm - N/A   Clear
8:54 PM 37.9 °F - 32.0 °F 79% 30.30 in 10.0 mi Calm Calm - N/A   Clear
9:54 PM 37.0 °F 34.5 °F 33.1 °F 86% 30.29 in 10.0 mi NNE 3.5 mph - N/A   Clear
10:54 PM 37.0 °F - 32.0 °F 82% 30.29 in 10.0 mi Calm Calm - N/A   Clear
11:54 PM 37.9 °F 34.4 °F 33.1 °F 83% 30.29 in 10.0 mi NE 4.6 mph - N/A   Clear